Location: Étang Rond
(42.7927°N, 1.0661°E)
Time: 01:21:49
(UTC+00:00)

Cosmos 2173 Rocket - Pass Details

Date: 08 November 2025
Orbit: 943 x 1000 km, 83.0° (Epoch: 07 December)

Event Time Altitude Azimuth Distance (km) Brightness Sun altitude
Rises 05:15:53 0° 344° (NNW) 3,625 6.7 -15.5°
Reaches altitude 10° 05:18:32 10° 337° (NNW) 2,672 6.0 -15.0°
Maximum altitude 05:24:05 38° 272° (W) 1,396 4.3 -14.0°
Drops below altitude 10° 05:29:37 10° 205° (SSW) 2,656 6.1 -13.0°
Sets 05:32:15 0° 198° (SSW) 3,600 6.9 -12.5°
